Location: Meadowlark Meadows
(41.2788°N, 111.9561°W)
Time: 07:58:09
(UTC+00:00)

Envisat - Visible Passes

Search period start: 06 July 2022 00:00
Search period end: 16 July 2022 00:00
Orbit: 764 x 765 km, 98.2° (Epoch: 05 July)

Date Brightness Start Highest point End Pass type
(mag) Time Alt. Az. Time Alt. Az. Time Alt. Az.
06 Jul 5.2 11:03:56 10° NE 11:07:59 24° E 11:12:01 10° SSE visible
09 Jul 5.5 10:52:36 10° NE 10:56:06 18° E 10:59:34 10° SE visible
11 Jul 4.8 11:16:55 10° NNE 11:21:27 32° E 11:25:57 10° SSE visible
12 Jul 5.6 10:41:29 10° ENE 10:44:10 14° E 10:46:52 10° ESE visible
14 Jul 5.1 11:05:25 10° NE 11:09:35 25° E 11:13:43 10° SSE visible
15 Jul 5.9 10:31:05 10° ENE 10:32:15 11° E 10:33:24 10° ESE visible
